Regional Weather Roundup
Issued by NWS Grand Forks, ND

Home | Current Version | Previous Version | Text Only | Print | Product List | Glossary On
Versions: 1 2 3 4 5 6 7 8 9 10 11 12 13 14 15 16 17 18 19 20 21 22 23 24 25 26 27 28 29 30 31 32 33 34 35 36 37 38 39 40 41 42 43 44 45 46 47 48 49 50
000
ASUS43 KFGF 260931
RWRFGF
PRAIRIE TO PINES  WEATHER ROUNDUP
NATIONAL WEATHER SERVICE EASTERN NORTH DAKOTA/GRAND FORKS ND
400 AM CDT SAT JUL 26 2014

 **SATELLITE DATA USED TO AUGMENT SKY COVER AT AUTOMATED STATIONS**
 *****  WEATHER ACROSS EASTERN NORTH DAKOTA  *****

CITY           SKY/WX    TMP DP  RH WIND       PRES   REMARKS
GRAND FORKS    CLEAR     59  55  87 S8        29.75F
GRAND FRKS AFB CLEAR     58  57  97 S8        29.75F
GRAND FRKS NWS   N/A     59 N/A N/A SW2         N/A
DEVILS LAKE    CLEAR     66  52  59 S16       29.73F
FARGO          CLEAR     58  54  86 S7        29.79S
WAHPETON ARPT  SUNNY     55  54  94 CALM      29.82F
$$

 ***** WEATHER ACROSS CENTRAL AND WESTERN NORTH DAKOTA  *****

CITY           SKY/WX    TMP DP  RH WIND       PRES   REMARKS
BISMARCK       CLEAR     61  52  72 S8        29.81F
MINOT          CLEAR     59  50  72 SW10      29.77F
JAMESTOWN      CLEAR     57  54  89 S6        29.80F
MINOT AFB      CLEAR     56  53  89 SW9       29.76F
GARRISON         N/A     56  53  90 NW9       29.82R
WILLISTON      CLEAR     58  49  72 W12       29.85R
DICKINSON      CLEAR     55  46  71 NW13      29.89R
HETTINGER      CLEAR     54  47  77 W8        29.90R
$$

 *****  OTHER AIRPORT OBSERVATIONS IN OUR AREA  *****

CITY           SKY/WX    TMP DP  RH WIND       PRES   REMARKS
WALHALLA         N/A     63  54  72 SW8         N/A
GRAFTON AIRPOR FAIR      54  54 100 S7        29.73F
VALLEY CITY AR FAIR      54  54 100 S5        29.81F
CANDO          FAIR      59  54  82 SW10      29.75R
CAVALIER APRT  FAIR      59  54  82 S3        29.72F
GWINNER        SUNNY     59  59 100 CALM      29.82F
SHEYENNE NWR     N/A     54  54  99 W2        29.95
ROLLA          FAIR      57  57 100 SW10      29.75S
 ***** THE ABOVE OBSERVATIONS ARE NON NWS ARE NOT QUALITY
       CONTROLLED AND MAY MIS-REPORT RAIN FOR SNOW...
$$

  *****  WEATHER ACROSS NORTHERN MINNESOTA  *****

CITY           SKY/WX    TMP DP  RH WIND       PRES   REMARKS
FLAG ISLAND    CLEAR     64  55  72 W12       29.72R HAZE
WARROAD        CLEAR     57  54  88 SW6       29.75S
ROSEAU         CLEAR     57  54  88 CALM      29.75S
HALLOCK        CLEAR     55  54  94 SE7       29.73F
THF RVR FALLS  CLEAR     59  54  82 CALM      29.77F
BAUDETTE       CLEAR     58  53  84 CALM      29.76R
WASKISH        CLEAR     68  57  68 W13G18    29.76F
CROOKSTON      CLEAR     55  54  94 SE6       29.77F
$$
  *****  WEATHER ACROSS CENTRAL AND WEST MINNESOTA  *****

CITY           SKY/WX    TMP DP  RH WIND       PRES   REMARKS
FOSSTON        CLEAR     52  50  93 S6        29.80S
BEMIDJI        CLEAR     56  53  91 SW3       29.79S
PARK RAPIDS    CLEAR     54  53  97 W5        29.81R
ELBOW LAKE     FAIR      58  58  99 SW5       29.84R FOG
WADENA         CLEAR     55  54  94 CALM      29.81S
DETROIT LAKES  CLEAR     59  55  88 CALM      29.82F
MOORHEAD       CLEAR     61  59  94 SW7       29.81R
FERGUS FALLS   CLEAR     57  55  94 SW5       29.84R
MORRIS MN      FOG       59  59 100 NW3       29.82S VSB 3/4
STAPLES        CLEAR     55  55 100 W3        29.81S
$$
  *****  WEATHER ELSEWHERE ACROSS MINNESOTA  *****

CITY           SKY/WX    TMP DP  RH WIND       PRES   REMARKS
DULUTH         PTCLDY    70  66  87 NW9       29.77S
INTRNTL FALLS  CLEAR     55  54  96 CALM      29.74S
ELY            CLEAR     64  61  88 SW3       29.75S
CLOQUET        CLEAR     68  64  88 W6        29.78S
WHEATON          N/A     61  61 100 S2        29.84S
BRAINERD       CLEAR     61  60  97 CALM      29.80S
HIBBING        FOG       56  54  93 CALM      29.77S VSB 1/2
ALEXANDRIA     CLEAR     60  58  92 SW5       29.84R
SAINT CLOUD    CLEAR     67  64  90 W3        29.80F FOG
MINNEAPOLIS    CLOUDY    74  69  85 W7        29.80S
$$

  *****  WEATHER ACROSS SOUTH DAKOTA  *****

CITY           SKY/WX    TMP DP  RH WIND       PRES   REMARKS
SIOUX FALLS    MOCLDY    72  69  90 NE7       29.82F
BROOKINGS      NOT AVBL
WATERTOWN      MOCLDY    64  64 100 S5        29.85S FOG
HURON          CLOUDY    69  66  90 VRB3      29.82R
SISSETON         N/A     59  57  93 CALM      29.81S
ABERDEEN       MOCLDY    59  59 100 CALM      29.82S
MITCHELL       MOCLDY    69  67  93 NE6       29.81F
PIERRE         PTCLDY    69  67  93 SE7       29.81S
MOBRIDGE       PTCLDY    67  66  97 S7        29.79S
RAPID CITY     CLEAR     61  51  70 N10       29.89R
$$

  *****  SOME WEATHER IN NEARBY STATES *****

CITY           SKY/WX    TMP DP  RH WIND       PRES   REMARKS
GLASGOW MT     CLEAR     55  48  77 W10       29.92R
GREAT FALLS MT CLEAR     52  38  58 E7        30.08R
CHEYENNE WY    CLEAR     70  43  37 W17       30.12R
SCOTTSBLUFF NE CLEAR     63  58  83 CALM      29.93R
OMAHA NE       MOCLDY    73  70  90 N7        29.81R
DES MOINES IA  PTCLDY    71  68  90 NE6       29.78F
DAVENPORT IA   MOCLDY    66  62  87 E6        29.82F
CHICAGO IL     MOCLDY    68  57  68 S3        29.86F
EAU CLAIRE WI  CLOUDY    69  67  93 SW6       29.80F
LA CROSSE WI   CLOUDY    69  65  86 S7        29.82F
$$

  *****  SOME NATIONAL WEATHER *****

CITY           SKY/WX    TMP DP  RH WIND       PRES   REMARKS
LA GUARDIA NY  CLOUDY    71  60  68 SW7       29.99R
RALEIGH NC     CLOUDY    72  69  90 S3        30.01S FOG
ATLANTA GA     PTCLDY    71  66  84 CALM      30.02S
NEW ORLEANS LA MOCLDY    79  75  87 SW6       30.01S
OKLAHOMA CITY  PTCLDY    73  66  78 S8        29.92R
ALBUQUERQUE NM PTCLDY    78  41  26 SE6       30.12S
SALT LAKE CITY CLEAR     73  45  36 NW6       30.03R
LOS ANGELES CA FOG       66  64  94 W6        29.92S VSB 1
BOISE ID       CLEAR     62  32  32 S3        30.04R
SEATTLE WA     CLEAR     59  52  77 N3        30.13R
$$

*** WEATHER ACROSS MANITOBA...SASKATCHEWAN AND ONTARIO ***
                ***ONTARIO***

CITY           SKY/WX    TMP DP  RH WIND       PRES   REMARKS
GERALDTON      CLOUDY    59  57  94 E2        29.74
THUNDER BAY    MOCLDY    59  57  94 NE3       29.72F
SIOUX LOOKOUT  CLOUDY    64  63  94 W3        29.68
TORONTO        PTCLDY    63  54  72 SW7       29.93R
BIG TROUT LK   CLOUDY    52  45  76 E6        29.85R
PICKLE LAKE    NOT AVBL
DRYDEN         CLEAR     61  61 100 W9        29.70R
KENORA         PTCLDY    61  57  88 W7        29.73R
$$
                *** MANITOBA***

CITY           SKY/WX    TMP DP  RH WIND       PRES   REMARKS
BRANDON        MOCLDY    63  57  82 SW15      29.67F
DAUPHIN        CLOUDY    64  55  72 SW7       29.60F
ISLAND LAKE    PTCLDY    55  52  88 E10       29.79S
PILOT MOUND      N/A     54  52  94 S8          N/A
THE PAS        CLOUDY    63  59  88 E9        29.68S
THOMPSON       MOCLDY    52  48  87 E17       29.88R
WINNIPEG       CLEAR     63  52  67 SW10      29.70F
LYNN LAKE      PTCLDY    54  50  87 E9        29.89R
CHURCHILL      FOG       46  45  93 NE8       30.06S VSB 1/4
GILLAM         DRIZZLE   45  45 100 NE16G24   29.95R FOG
$$
                ***SASKATCHEWAN***

CITY           SKY/WX    TMP DP  RH WIND       PRES   REMARKS
ESTEVAN        CLOUDY    59  54  82 W14       29.75F
KINDERSLEY     MOCLDY    57  54  88 NW15G25   29.84R
LLOYDMINSTER   MOCLDY    57  55  94 NW13G20   29.84R
PRINCE ALBERT  MOCLDY    55  55 100 NW6       29.70R
REGINA         LGT RAIN  55  54  94 W21G30    29.66R
YORKTON        LGT RAIN  57  55  94 SW10G23   29.60F FOG
N. BATTLEFORD  MOCLDY    54  52  94 NW9       29.79R
LA RONGE       PTCLDY    63  61  94 NE10      29.77R
SASKATOON      CLOUDY    57  55  94 N12       29.72R
SWIFT CURRENT  CLOUDY    55  52  88 W21G32    29.83R
$$
NOTE: THESE ARE AUTOMATED STATIONS WITH LIMITED QUALITY CONTROL
      "FAIR" INDICATES FEW OR NO CLOUDS BELOW 12,000 FEET WITH NO
      SIGNIFICANT WEATHER AND/OR OBSTRUCTIONS TO VISIBILITY.
      SKY/WX - SKY CONDITION AND SIGNIFICANT WEATHER.
      TMP - AIR TEMPERATURE.    DP   - DEWPOINT TEMPERATURE.
      RH  - RELATIVE HUMIDITY.  PRES - PRESSURE.
      HX  - HEAT INDEX.         WCI  - WIND CHILL INDEX.
$



USA.gov is the U.S. government's official web portal to all federal, state and local government web resources and services.